STARLINK-38082

Last updated on Sun Aug 09 2026 00:02:04 GMT+0000 (Coordinated Universal Time)

1 69993U 26159U 26220.53594041 .00118844 00000+0 78577-3 0 9994 2 69993 97.2819 60.5400 0001108 97.6748 262.4643 15.75214792 5702
UTC large
Height (km)
Speed (km/s)
/
Latitude / Longitude
Inclination (degrees)
Orbital Period (minutes)
Azimuth
Elevation
Range (km)
Doppler Factor

Next 0 passes for location: London (51.5072 / 0.1276)

No passes found over London.
STARLINK-38082